CYGFM08

Last updated on Tue Sep 22 2026 00:02:53 GMT+0000 (Coordinated Universal Time)

1 41888U 16078E 26264.53635293 .00025131 00000+0 24488-3 0 9997 2 41888 34.9431 317.4535 0004916 27.0516 333.0466 15.65197602544059
UTC large
Height (km)
Speed (km/s)
/
Latitude / Longitude
Inclination (degrees)
Orbital Period (minutes)
Azimuth
Elevation
Range (km)
Doppler Factor

Next 0 passes for location: London (51.5072 / 0.1276)

No passes found over London.
CYGFM08